New Roads False River Regiona, LA

4:53 PM CDT on October 18, 2019 (GMT -0500)
False River

Weather History for KHZR - August, 2019

Change the Weather History Date:

Friday, August 16, 2019

  Actual Average (KBTR) Record (KBTR)
Temperature  
Mean Temperature 82 °F -  
Max Temperature 93 °F 91 °F 99 °F (1943)
Min Temperature 71 °F 73 °F 60 °F (2004)
Cooling Degree Days 17    
Growing Degree Days 32 (Base 50)    
Moisture  
Dew Point 74 °F    
Average Humidity 77    
Maximum Humidity 100    
Minimum Humidity 46    
Precipitation  
Precipitation 0.00 in - - ()
Sea Level Pressure  
Sea Level Pressure 29.96 in    
Wind  
Wind Speed 0 mph (East)    
Max Wind Speed 10 mph    
Max Gust Speed 17 mph    
Visibility 10 miles    
Events      
Averages and records for this station are not official NWS values.
T = Trace of Precipitation, MM = Missing Value Source: NWS Daily Summary

Daily Weather History Graph

Daily Weather History Graph

Search for Another Location

Airport or City:

Astronomy

Aug. 16, 2019 Rise Set
Actual Time 6:32 AM CDT 7:47 PM CDT
Civil Twilight 6:07 AM CDT 8:12 PM CDT
Nautical Twilight 5:37 AM CDT 8:42 PM CDT
Astronomical Twilight 5:06 AM CDT 9:13 PM CDT
Moon 8:49 PM CDT (8/16) 7:24 AM CDT (8/16)
Length of Visible Light 14h 04m
Length of Day
13h 14m
Full, 99% of the Moon is Illuminated
Aug 16
Full
Aug 23
Last Quarter
Aug 30
New
Sep 5
First Quarter
Sep 13
Full

Hourly Weather History & Observations

Time (CDT) Temp. Heat Index Dew Point Humidity Pressure Visibility Wind Dir Wind Speed Gust Speed Precip Events Conditions
12:16 AM 75.2 °F - 75.2 °F 100% 29.95 in 10.0 mi Calm Calm - N/A   Clear
12:36 AM 75.2 °F - 75.2 °F 100% 29.95 in 10.0 mi Calm Calm - N/A   Clear
12:56 AM 75.2 °F - 75.2 °F 100% 29.94 in 10.0 mi Calm Calm - N/A   Clear
1:16 AM 73.4 °F - 73.4 °F 100% 29.94 in 10.0 mi Calm Calm - N/A   Clear
1:36 AM 73.4 °F - 73.4 °F 100% 29.94 in 10.0 mi Calm Calm - N/A   Clear
1:56 AM 73.4 °F - 73.4 °F 100% 29.94 in 10.0 mi Calm Calm - N/A   Clear
2:16 AM 73.4 °F - 73.4 °F 100% 29.95 in 7.0 mi Calm Calm - N/A   Clear
2:35 AM 73.4 °F - 73.4 °F 100% 29.95 in 10.0 mi Calm Calm - N/A   Clear
3:16 AM 73.4 °F - 73.4 °F 100% 29.95 in 10.0 mi Calm Calm - N/A   Clear
3:38 AM 73.4 °F - 73.4 °F 100% 29.95 in 10.0 mi Calm Calm - N/A   Clear
3:56 AM 73.4 °F - 73.4 °F 100% 29.95 in 7.0 mi Calm Calm - N/A   Clear
4:36 AM 73.4 °F - 73.4 °F 100% 29.95 in 10.0 mi Calm Calm - N/A   Clear
4:56 AM 71.6 °F - 71.6 °F 100% 29.95 in 10.0 mi Calm Calm - N/A   Clear
5:16 AM 71.6 °F - 71.6 °F 100% 29.96 in 10.0 mi Calm Calm - N/A   Clear
6:36 AM 71.6 °F - 71.6 °F 100% 29.97 in 10.0 mi Calm Calm - N/A   Mostly Cloudy
7:16 AM 73.4 °F - 73.4 °F 100% 29.98 in 10.0 mi Calm Calm - N/A   Clear
7:36 AM 75.2 °F - 75.2 °F 100% 29.98 in 10.0 mi Calm Calm - N/A   Clear
7:55 AM 77.0 °F - 75.2 °F 94% 29.99 in 10.0 mi Calm Calm - N/A   Clear
8:16 AM 78.8 °F - 75.2 °F 89% 29.99 in 10.0 mi Calm Calm - N/A   Clear
8:36 AM 80.6 °F 86.2 °F 75.2 °F 84% 29.99 in 10.0 mi Calm Calm - N/A   Clear
8:56 AM 80.6 °F 86.2 °F 75.2 °F 84% 29.99 in 10.0 mi Calm Calm - N/A   Clear
9:16 AM 82.4 °F 89.5 °F 75.2 °F 79% 30.00 in 10.0 mi Calm Calm - N/A   Clear
9:56 AM 86.0 °F 93.4 °F 73.4 °F 66% 30.00 in 10.0 mi Calm Calm - N/A   Clear
10:16 AM 86.0 °F 95.1 °F 75.2 °F 70% 30.00 in 10.0 mi Calm Calm - N/A   Clear
10:37 AM 87.8 °F 97.6 °F 75.2 °F 66% 30.01 in 10.0 mi Calm Calm - N/A   Clear
10:56 AM 87.8 °F 97.6 °F 75.2 °F 66% 30.01 in 10.0 mi South 4.6 mph - N/A   Clear
11:16 AM 89.6 °F 98.2 °F 73.4 °F 59% 30.01 in 10.0 mi Calm Calm - N/A   Clear
11:36 AM 89.6 °F 98.2 °F 73.4 °F 59% 30.00 in 10.0 mi Calm Calm - N/A   Clear
11:56 AM 89.6 °F 98.2 °F 73.4 °F 59% 30.00 in 10.0 mi Calm Calm - N/A   Mostly Cloudy
12:18 PM 89.6 °F 98.2 °F 73.4 °F 59% 29.99 in 10.0 mi East 3.5 mph - N/A   Mostly Cloudy
12:56 PM 89.6 °F 98.2 °F 73.4 °F 59% 29.98 in 10.0 mi Calm Calm - N/A   Scattered Clouds
1:35 PM 91.4 °F 100.1 °F 73.4 °F 55% 29.97 in 10.0 mi Calm Calm - N/A   Scattered Clouds
1:56 PM 91.4 °F 100.1 °F 73.4 °F 55% 29.96 in 10.0 mi Calm Calm - N/A   Scattered Clouds
2:16 PM 93.2 °F 102.4 °F 73.4 °F 52% 29.96 in 10.0 mi Calm Calm - N/A   Scattered Clouds
2:36 PM 91.4 °F 100.1 °F 73.4 °F 55% 29.96 in 10.0 mi Calm Calm - N/A   Clear
2:56 PM 93.2 °F 98.8 °F 69.8 °F 46% 29.95 in 10.0 mi ENE 4.6 mph - N/A   Clear
3:38 PM 91.4 °F 98.4 °F 71.6 °F 52% 29.94 in 10.0 mi Calm Calm - N/A   Clear
3:56 PM 93.2 °F 98.8 °F 69.8 °F 46% 29.93 in 10.0 mi Calm Calm - N/A   Clear
4:38 PM 93.2 °F 98.8 °F 69.8 °F 46% 29.92 in 10.0 mi Calm Calm - N/A   Clear
4:56 PM 93.2 °F 100.5 °F 71.6 °F 49% 29.91 in 10.0 mi NE 3.5 mph - N/A   Clear
5:16 PM 93.2 °F 100.5 °F 71.6 °F 49% 29.91 in 10.0 mi Calm Calm - N/A   Clear
5:36 PM 93.2 °F 100.5 °F 71.6 °F 49% 29.91 in 10.0 mi Calm Calm - N/A   Scattered Clouds
5:56 PM 93.2 °F 100.5 °F 71.6 °F 49% 29.90 in 10.0 mi Calm Calm - N/A   Scattered Clouds
6:17 PM 91.4 °F 98.4 °F 71.6 °F 52% 29.90 in 10.0 mi Calm Calm - N/A   Scattered Clouds
6:56 PM 87.8 °F 95.6 °F 73.4 °F 62% 29.90 in 10.0 mi NNW 5.8 mph - N/A   Mostly Cloudy
7:17 PM 87.8 °F 95.6 °F 73.4 °F 62% 29.91 in 10.0 mi NNW 10.4 mph 17.3 mph N/A   Mostly Cloudy
7:56 PM 82.4 °F 88.2 °F 73.4 °F 74% 29.92 in 10.0 mi Calm Calm - N/A   Mostly Cloudy
8:16 PM 82.4 °F 89.5 °F 75.2 °F 79% 29.93 in 10.0 mi Calm Calm - N/A   Mostly Cloudy
8:36 PM 82.4 °F 88.2 °F 73.4 °F 74% 29.93 in 10.0 mi Calm Calm - N/A   Clear
9:16 PM 80.6 °F 86.2 °F 75.2 °F 84% 29.94 in 10.0 mi Calm Calm - N/A   Clear
9:36 PM 80.6 °F 86.2 °F 75.2 °F 84% 29.94 in 10.0 mi Calm Calm - N/A   Clear
9:56 PM 78.8 °F - 75.2 °F 89% 29.95 in 10.0 mi Calm Calm - N/A   Clear
10:16 PM 78.8 °F - 73.4 °F 83% 29.95 in 10.0 mi Calm Calm - N/A   Clear
10:36 PM 78.8 °F - 75.2 °F 89% 29.95 in 10.0 mi Calm Calm - N/A   Clear
10:58 PM 80.6 °F 86.2 °F 75.2 °F 84% 29.96 in 10.0 mi South 4.6 mph - N/A   Clear
11:16 PM 80.6 °F 86.2 °F 75.2 °F 84% 29.96 in 10.0 mi South 4.6 mph - N/A   Clear
11:38 PM 80.6 °F 86.2 °F 75.2 °F 84% 29.96 in 10.0 mi Calm Calm - N/A   Clear
11:56 PM 78.8 °F - 75.2 °F 89% 29.96 in 10.0 mi Calm Calm - N/A   Clear